site,time,unit,value
St Agnes,2024-05-04T00:05:00+01:00,MVA,2.032
St Agnes,2024-05-04T00:10:00+01:00,MVA,2.045
St Agnes,2024-05-04T00:15:00+01:00,MVA,2.044
St Agnes,2024-05-04T00:20:00+01:00,MVA,1.993
St Agnes,2024-05-04T00:25:00+01:00,MVA,1.938
St Agnes,2024-05-04T00:30:00+01:00,MVA,1.912
St Agnes,2024-05-04T00:35:00+01:00,MVA,2.059
St Agnes,2024-05-04T00:40:00+01:00,MVA,2.096
St Agnes,2024-05-04T00:45:00+01:00,MVA,2.127
St Agnes,2024-05-04T00:50:00+01:00,MVA,2.158
St Agnes,2024-05-04T00:55:00+01:00,MVA,2.189
St Agnes,2024-05-04T01:00:00+01:00,MVA,2.22
St Agnes,2024-05-04T01:05:00+01:00,MVA,2.401
St Agnes,2024-05-04T01:10:00+01:00,MVA,2.626
St Agnes,2024-05-04T01:15:00+01:00,MVA,2.676
St Agnes,2024-05-04T01:20:00+01:00,MVA,2.693
St Agnes,2024-05-04T01:25:00+01:00,MVA,2.71
St Agnes,2024-05-04T01:30:00+01:00,MVA,2.727
St Agnes,2024-05-04T01:35:00+01:00,MVA,2.744
St Agnes,2024-05-04T01:40:00+01:00,MVA,2.761
St Agnes,2024-05-04T01:45:00+01:00,MVA,2.779
St Agnes,2024-05-04T01:50:00+01:00,MVA,2.796
St Agnes,2024-05-04T01:55:00+01:00,MVA,2.813
St Agnes,2024-05-04T02:00:00+01:00,MVA,2.83
St Agnes,2024-05-04T02:05:00+01:00,MVA,2.828
St Agnes,2024-05-04T02:10:00+01:00,MVA,2.792
St Agnes,2024-05-04T02:15:00+01:00,MVA,2.752
St Agnes,2024-05-04T02:20:00+01:00,MVA,2.691
St Agnes,2024-05-04T02:25:00+01:00,MVA,2.626
St Agnes,2024-05-04T02:30:00+01:00,MVA,2.657
St Agnes,2024-05-04T02:35:00+01:00,MVA,2.688
St Agnes,2024-05-04T02:40:00+01:00,MVA,2.598
St Agnes,2024-05-04T02:45:00+01:00,MVA,2.536
St Agnes,2024-05-04T02:50:00+01:00,MVA,2.485
St Agnes,2024-05-04T02:55:00+01:00,MVA,2.435
St Agnes,2024-05-04T03:00:00+01:00,MVA,2.475
St Agnes,2024-05-04T03:05:00+01:00,MVA,2.565
St Agnes,2024-05-04T03:10:00+01:00,MVA,2.545
St Agnes,2024-05-04T03:15:00+01:00,MVA,2.482
St Agnes,2024-05-04T03:20:00+01:00,MVA,2.415
St Agnes,2024-05-04T03:25:00+01:00,MVA,2.317
St Agnes,2024-05-04T03:30:00+01:00,MVA,2.296
St Agnes,2024-05-04T03:35:00+01:00,MVA,2.433
St Agnes,2024-05-04T03:40:00+01:00,MVA,2.453
St Agnes,2024-05-04T03:45:00+01:00,MVA,2.361
St Agnes,2024-05-04T03:50:00+01:00,MVA,2.461
St Agnes,2024-05-04T03:55:00+01:00,MVA,2.38
St Agnes,2024-05-04T04:00:00+01:00,MVA,2.367
St Agnes,2024-05-04T04:05:00+01:00,MVA,2.437
St Agnes,2024-05-04T04:10:00+01:00,MVA,2.478
St Agnes,2024-05-04T04:15:00+01:00,MVA,2.372
St Agnes,2024-05-04T04:20:00+01:00,MVA,2.293
St Agnes,2024-05-04T04:25:00+01:00,MVA,2.243
St Agnes,2024-05-04T04:30:00+01:00,MVA,2.192
St Agnes,2024-05-04T04:35:00+01:00,MVA,2.159
St Agnes,2024-05-04T04:40:00+01:00,MVA,2.2
St Agnes,2024-05-04T04:45:00+01:00,MVA,2.249
St Agnes,2024-05-04T04:50:00+01:00,MVA,2.298
St Agnes,2024-05-04T04:55:00+01:00,MVA,2.199
St Agnes,2024-05-04T05:00:00+01:00,MVA,2.179
St Agnes,2024-05-04T05:05:00+01:00,MVA,2.212
St Agnes,2024-05-04T05:10:00+01:00,MVA,2.245
St Agnes,2024-05-04T05:15:00+01:00,MVA,2.278
St Agnes,2024-05-04T05:20:00+01:00,MVA,2.31
St Agnes,2024-05-04T05:25:00+01:00,MVA,2.231
St Agnes,2024-05-04T05:30:00+01:00,MVA,2.174
St Agnes,2024-05-04T05:35:00+01:00,MVA,2.185
St Agnes,2024-05-04T05:40:00+01:00,MVA,2.21
St Agnes,2024-05-04T05:45:00+01:00,MVA,2.237
St Agnes,2024-05-04T05:50:00+01:00,MVA,2.284
St Agnes,2024-05-04T05:55:00+01:00,MVA,2.334
St Agnes,2024-05-04T06:00:00+01:00,MVA,2.384
St Agnes,2024-05-04T06:05:00+01:00,MVA,2.322
St Agnes,2024-05-04T06:10:00+01:00,MVA,2.399
St Agnes,2024-05-04T06:15:00+01:00,MVA,2.38
St Agnes,2024-05-04T06:20:00+01:00,MVA,2.353
St Agnes,2024-05-04T06:25:00+01:00,MVA,2.396
St Agnes,2024-05-04T06:30:00+01:00,MVA,2.462
St Agnes,2024-05-04T06:35:00+01:00,MVA,2.413
St Agnes,2024-05-04T06:40:00+01:00,MVA,2.477
St Agnes,2024-05-04T06:45:00+01:00,MVA,2.414
St Agnes,2024-05-04T06:50:00+01:00,MVA,2.35
St Agnes,2024-05-04T06:55:00+01:00,MVA,2.247
St Agnes,2024-05-04T07:00:00+01:00,MVA,2.24
St Agnes,2024-05-04T07:05:00+01:00,MVA,2.502
St Agnes,2024-05-04T07:10:00+01:00,MVA,2.493
St Agnes,2024-05-04T07:15:00+01:00,MVA,2.41
St Agnes,2024-05-04T07:20:00+01:00,MVA,2.34
St Agnes,2024-05-04T07:25:00+01:00,MVA,2.347
St Agnes,2024-05-04T07:30:00+01:00,MVA,2.37
St Agnes,2024-05-04T07:35:00+01:00,MVA,2.393
St Agnes,2024-05-04T07:40:00+01:00,MVA,2.393
St Agnes,2024-05-04T07:45:00+01:00,MVA,2.252
St Agnes,2024-05-04T07:50:00+01:00,MVA,2.136
St Agnes,2024-05-04T07:55:00+01:00,MVA,2.297
St Agnes,2024-05-04T08:00:00+01:00,MVA,2.379
St Agnes,2024-05-04T08:05:00+01:00,MVA,2.246
St Agnes,2024-05-04T08:10:00+01:00,MVA,2.184
St Agnes,2024-05-04T08:15:00+01:00,MVA,2.135
St Agnes,2024-05-04T08:20:00+01:00,MVA,2.071
St Agnes,2024-05-04T08:25:00+01:00,MVA,2.006
St Agnes,2024-05-04T08:30:00+01:00,MVA,2.044
St Agnes,2024-05-04T08:35:00+01:00,MVA,1.996
St Agnes,2024-05-04T08:40:00+01:00,MVA,2.048
St Agnes,2024-05-04T08:45:00+01:00,MVA,2.1
St Agnes,2024-05-04T08:50:00+01:00,MVA,2.015
St Agnes,2024-05-04T08:55:00+01:00,MVA,2.041
St Agnes,2024-05-04T09:00:00+01:00,MVA,2.103
St Agnes,2024-05-04T09:05:00+01:00,MVA,1.995
St Agnes,2024-05-04T09:10:00+01:00,MVA,1.808
St Agnes,2024-05-04T09:15:00+01:00,MVA,1.88
St Agnes,2024-05-04T09:20:00+01:00,MVA,1.893
St Agnes,2024-05-04T09:25:00+01:00,MVA,1.87
St Agnes,2024-05-04T09:30:00+01:00,MVA,1.833
St Agnes,2024-05-04T09:35:00+01:00,MVA,1.767
St Agnes,2024-05-04T09:40:00+01:00,MVA,1.748
St Agnes,2024-05-04T09:45:00+01:00,MVA,1.611
St Agnes,2024-05-04T09:50:00+01:00,MVA,1.672
St Agnes,2024-05-04T09:55:00+01:00,MVA,1.631
St Agnes,2024-05-04T10:00:00+01:00,MVA,1.819
St Agnes,2024-05-04T10:05:00+01:00,MVA,1.896
St Agnes,2024-05-04T10:10:00+01:00,MVA,1.616
St Agnes,2024-05-04T10:15:00+01:00,MVA,1.576
St Agnes,2024-05-04T10:20:00+01:00,MVA,1.608
St Agnes,2024-05-04T10:25:00+01:00,MVA,1.621
St Agnes,2024-05-04T10:30:00+01:00,MVA,1.526
St Agnes,2024-05-04T10:35:00+01:00,MVA,1.263
St Agnes,2024-05-04T10:40:00+01:00,MVA,1.23
St Agnes,2024-05-04T10:45:00+01:00,MVA,1.38
St Agnes,2024-05-04T10:50:00+01:00,MVA,1.346
St Agnes,2024-05-04T10:55:00+01:00,MVA,1.505
St Agnes,2024-05-04T11:00:00+01:00,MVA,1.38
St Agnes,2024-05-04T11:05:00+01:00,MVA,1.363
St Agnes,2024-05-04T11:10:00+01:00,MVA,1.459
St Agnes,2024-05-04T11:15:00+01:00,MVA,1.327
St Agnes,2024-05-04T11:20:00+01:00,MVA,1.156
St Agnes,2024-05-04T11:25:00+01:00,MVA,1.123
St Agnes,2024-05-04T11:30:00+01:00,MVA,1.413
St Agnes,2024-05-04T11:35:00+01:00,MVA,1.369
St Agnes,2024-05-04T11:40:00+01:00,MVA,1.235
St Agnes,2024-05-04T11:45:00+01:00,MVA,1.288
St Agnes,2024-05-04T11:50:00+01:00,MVA,1.28
St Agnes,2024-05-04T11:55:00+01:00,MVA,1.277
St Agnes,2024-05-04T12:00:00+01:00,MVA,1.336
St Agnes,2024-05-04T12:05:00+01:00,MVA,1.267
St Agnes,2024-05-04T12:10:00+01:00,MVA,1.23
St Agnes,2024-05-04T12:15:00+01:00,MVA,1.322
St Agnes,2024-05-04T12:20:00+01:00,MVA,1.176
St Agnes,2024-05-04T12:25:00+01:00,MVA,1.053
St Agnes,2024-05-04T12:30:00+01:00,MVA,1.051
St Agnes,2024-05-04T12:35:00+01:00,MVA,1.014
St Agnes,2024-05-04T12:40:00+01:00,MVA,1.144
St Agnes,2024-05-04T12:45:00+01:00,MVA,1.039
St Agnes,2024-05-04T12:50:00+01:00,MVA,0.845
St Agnes,2024-05-04T12:55:00+01:00,MVA,0.854
St Agnes,2024-05-04T13:00:00+01:00,MVA,0.878
St Agnes,2024-05-04T13:05:00+01:00,MVA,0.759
St Agnes,2024-05-04T13:10:00+01:00,MVA,0.65
St Agnes,2024-05-04T13:15:00+01:00,MVA,0.715
St Agnes,2024-05-04T13:20:00+01:00,MVA,0.582
St Agnes,2024-05-04T13:25:00+01:00,MVA,0.615
St Agnes,2024-05-04T13:30:00+01:00,MVA,0.358
St Agnes,2024-05-04T13:35:00+01:00,MVA,0.408
St Agnes,2024-05-04T13:40:00+01:00,MVA,0.514
St Agnes,2024-05-04T13:45:00+01:00,MVA,0.749
St Agnes,2024-05-04T13:50:00+01:00,MVA,0.887
St Agnes,2024-05-04T13:55:00+01:00,MVA,0.853
St Agnes,2024-05-04T14:00:00+01:00,MVA,0.665
St Agnes,2024-05-04T14:05:00+01:00,MVA,0.432
St Agnes,2024-05-04T14:10:00+01:00,MVA,0.455
St Agnes,2024-05-04T14:15:00+01:00,MVA,0.488
St Agnes,2024-05-04T14:20:00+01:00,MVA,0.63
St Agnes,2024-05-04T14:25:00+01:00,MVA,0.516
St Agnes,2024-05-04T14:30:00+01:00,MVA,0.425
St Agnes,2024-05-04T14:35:00+01:00,MVA,0.597
St Agnes,2024-05-04T14:40:00+01:00,MVA,0.426
St Agnes,2024-05-04T14:45:00+01:00,MVA,0.536
St Agnes,2024-05-04T14:50:00+01:00,MVA,0.351
St Agnes,2024-05-04T14:55:00+01:00,MVA,0.366
St Agnes,2024-05-04T15:00:00+01:00,MVA,0.384
St Agnes,2024-05-04T15:05:00+01:00,MVA,0.367
St Agnes,2024-05-04T15:10:00+01:00,MVA,0.385
St Agnes,2024-05-04T15:15:00+01:00,MVA,0.509
St Agnes,2024-05-04T15:20:00+01:00,MVA,0.401
St Agnes,2024-05-04T15:25:00+01:00,MVA,0.491
St Agnes,2024-05-04T15:30:00+01:00,MVA,0.542
St Agnes,2024-05-04T15:35:00+01:00,MVA,0.557
St Agnes,2024-05-04T15:40:00+01:00,MVA,0.682
St Agnes,2024-05-04T15:45:00+01:00,MVA,0.83
St Agnes,2024-05-04T15:50:00+01:00,MVA,0.641
St Agnes,2024-05-04T15:55:00+01:00,MVA,0.597
St Agnes,2024-05-04T16:00:00+01:00,MVA,0.748
St Agnes,2024-05-04T16:05:00+01:00,MVA,0.833
St Agnes,2024-05-04T16:10:00+01:00,MVA,0.883
St Agnes,2024-05-04T16:15:00+01:00,MVA,0.812
St Agnes,2024-05-04T16:20:00+01:00,MVA,0.956
St Agnes,2024-05-04T16:25:00+01:00,MVA,0.851
St Agnes,2024-05-04T16:30:00+01:00,MVA,0.984
St Agnes,2024-05-04T16:35:00+01:00,MVA,1.052
St Agnes,2024-05-04T16:40:00+01:00,MVA,1.072
St Agnes,2024-05-04T16:45:00+01:00,MVA,1.204
St Agnes,2024-05-04T16:50:00+01:00,MVA,1.259
St Agnes,2024-05-04T16:55:00+01:00,MVA,1.385
St Agnes,2024-05-04T17:00:00+01:00,MVA,1.41
St Agnes,2024-05-04T17:05:00+01:00,MVA,1.479
St Agnes,2024-05-04T17:10:00+01:00,MVA,1.65
St Agnes,2024-05-04T17:15:00+01:00,MVA,1.914
St Agnes,2024-05-04T17:20:00+01:00,MVA,2.187
St Agnes,2024-05-04T17:25:00+01:00,MVA,2.424
St Agnes,2024-05-04T17:30:00+01:00,MVA,2.478
St Agnes,2024-05-04T17:35:00+01:00,MVA,2.427
St Agnes,2024-05-04T17:40:00+01:00,MVA,2.376
St Agnes,2024-05-04T17:45:00+01:00,MVA,2.452
St Agnes,2024-05-04T17:50:00+01:00,MVA,2.451
St Agnes,2024-05-04T17:55:00+01:00,MVA,2.293
St Agnes,2024-05-04T18:00:00+01:00,MVA,1.996
St Agnes,2024-05-04T18:05:00+01:00,MVA,2.06
St Agnes,2024-05-04T18:10:00+01:00,MVA,2.168
St Agnes,2024-05-04T18:15:00+01:00,MVA,2.514
St Agnes,2024-05-04T18:20:00+01:00,MVA,2.66
St Agnes,2024-05-04T18:25:00+01:00,MVA,2.735
St Agnes,2024-05-04T18:30:00+01:00,MVA,2.714
St Agnes,2024-05-04T18:35:00+01:00,MVA,2.663
St Agnes,2024-05-04T18:40:00+01:00,MVA,2.429
St Agnes,2024-05-04T18:45:00+01:00,MVA,2.405
St Agnes,2024-05-04T18:50:00+01:00,MVA,2.502
St Agnes,2024-05-04T18:55:00+01:00,MVA,2.581
St Agnes,2024-05-04T19:00:00+01:00,MVA,2.635
St Agnes,2024-05-04T19:05:00+01:00,MVA,2.622
St Agnes,2024-05-04T19:10:00+01:00,MVA,2.529
St Agnes,2024-05-04T19:15:00+01:00,MVA,2.565
St Agnes,2024-05-04T19:20:00+01:00,MVA,2.554
St Agnes,2024-05-04T19:25:00+01:00,MVA,2.538
St Agnes,2024-05-04T19:30:00+01:00,MVA,2.523
St Agnes,2024-05-04T19:35:00+01:00,MVA,2.507
St Agnes,2024-05-04T19:40:00+01:00,MVA,2.492
St Agnes,2024-05-04T19:45:00+01:00,MVA,2.476
St Agnes,2024-05-04T19:50:00+01:00,MVA,2.554
St Agnes,2024-05-04T19:55:00+01:00,MVA,2.546
St Agnes,2024-05-04T20:00:00+01:00,MVA,2.549
St Agnes,2024-05-04T20:05:00+01:00,MVA,2.497
St Agnes,2024-05-04T20:10:00+01:00,MVA,2.418
St Agnes,2024-05-04T20:15:00+01:00,MVA,2.429
St Agnes,2024-05-04T20:20:00+01:00,MVA,2.466
St Agnes,2024-05-04T20:25:00+01:00,MVA,2.503
St Agnes,2024-05-04T20:30:00+01:00,MVA,2.54
St Agnes,2024-05-04T20:35:00+01:00,MVA,2.521
St Agnes,2024-05-04T20:40:00+01:00,MVA,2.376
St Agnes,2024-05-04T20:45:00+01:00,MVA,2.344
St Agnes,2024-05-04T20:50:00+01:00,MVA,2.42
St Agnes,2024-05-04T20:55:00+01:00,MVA,2.386
St Agnes,2024-05-04T21:00:00+01:00,MVA,2.343
St Agnes,2024-05-04T21:05:00+01:00,MVA,2.396
St Agnes,2024-05-04T21:10:00+01:00,MVA,2.449
St Agnes,2024-05-04T21:15:00+01:00,MVA,2.401
St Agnes,2024-05-04T21:20:00+01:00,MVA,2.386
St Agnes,2024-05-04T21:25:00+01:00,MVA,2.368
St Agnes,2024-05-04T21:30:00+01:00,MVA,2.35
St Agnes,2024-05-04T21:35:00+01:00,MVA,2.332
St Agnes,2024-05-04T21:40:00+01:00,MVA,2.313
St Agnes,2024-05-04T21:45:00+01:00,MVA,2.295
St Agnes,2024-05-04T21:50:00+01:00,MVA,2.277
St Agnes,2024-05-04T21:55:00+01:00,MVA,2.259
St Agnes,2024-05-04T22:00:00+01:00,MVA,2.239
St Agnes,2024-05-04T22:05:00+01:00,MVA,2.2
St Agnes,2024-05-04T22:10:00+01:00,MVA,2.152
St Agnes,2024-05-04T22:15:00+01:00,MVA,2.104
St Agnes,2024-05-04T22:20:00+01:00,MVA,2.187
St Agnes,2024-05-04T22:25:00+01:00,MVA,2.178
St Agnes,2024-05-04T22:30:00+01:00,MVA,2.141
St Agnes,2024-05-04T22:35:00+01:00,MVA,2.116
St Agnes,2024-05-04T22:40:00+01:00,MVA,2.091
St Agnes,2024-05-04T22:45:00+01:00,MVA,2.049
St Agnes,2024-05-04T22:50:00+01:00,MVA,1.968
St Agnes,2024-05-04T22:55:00+01:00,MVA,1.965
St Agnes,2024-05-04T23:00:00+01:00,MVA,1.895
St Agnes,2024-05-04T23:05:00+01:00,MVA,1.853
St Agnes,2024-05-04T23:10:00+01:00,MVA,1.822
St Agnes,2024-05-04T23:15:00+01:00,MVA,1.791
St Agnes,2024-05-04T23:20:00+01:00,MVA,1.76
St Agnes,2024-05-04T23:25:00+01:00,MVA,1.729
St Agnes,2024-05-04T23:30:00+01:00,MVA,1.787
St Agnes,2024-05-04T23:35:00+01:00,MVA,1.909
St Agnes,2024-05-04T23:40:00+01:00,MVA,1.93
St Agnes,2024-05-04T23:45:00+01:00,MVA,1.949
St Agnes,2024-05-04T23:50:00+01:00,MVA,1.968
St Agnes,2024-05-04T23:55:00+01:00,MVA,1.987
St Agnes,2024-05-05T00:00:00+01:00,MVA,2.005
